Погода в Кондратьеве

Россия / Санкт-Петербург и Ленинградская область     60˚38′14″N   28˚09′20″E
темп.,
°C
ветер,
м/с
пор.,
м/с
влажн.,
%
обл.,
%
осадки,
мм/ч
давл.,
гПа
погр.,
м
16 января, сб
сб1600:00−14˚св249290 0.2 1017226
03:00−14˚св269084 0.2 1018236
06:00−15˚св259427 0.0 1018176
09:00−15˚ссв259551 0.0 1019149
12:00−14˚ссв249017 0.0 1020163
15:00−12˚с138519 0.0 1020191
18:00−14˚ссз129145 0.0 101921
21:00−13˚сз129745 0.0 101832
17 января, вс
вс1700:00−13˚зсз229674 0.0 101854
03:00−11˚зсз249565 0.0 1017141
06:00−10˚зсз259683 0.1 1016141
09:00−10˚зсз249683 0.1 1015121
12:00−7˚зсз269383 0.1 1016216
15:00−6˚сз259389 0.1 1016273
18:00−7˚сз269697 0.0 1015160
21:00−7˚зсз249797 0.1 1015100
18 января, пн
пн1800:00−7˚зсз239695 0.1 101583
03:00−8˚зсз239686 0.1 101550
06:00−9˚зсз229662 0.0 101524
09:00−9˚з129663 0.0 101521
12:00−8˚зюз119499 0.0 101585
15:00−7˚юз129397 0.0 101491
18:00−8˚зюз1296100 0.0 101421
21:00−5˚ююв119893 0.4 101525
19 января, вт
вт1900:00−5˚юз269796 0.1 1014166
03:00−4˚юз279698 0.1 1013174
06:00−3˚ююз3796100 0.1 1013324
09:00−3˚ююз41095100 0.4 1013451
12:00−2˚юз498999 0.1 1013685
15:00−2˚юз4886100 0.1 1013694
18:00−2˚юз4889100 0.0 1013553
21:00−3˚ююз4882100 0.1 1013596
20 января, ср
ср2000:00−6˚ююз310834 0.0 1013370
03:00−6˚ююз411783 0.0 1012464
06:00−6˚ююз5109298 0.1 1011552
09:00−6˚ю499399 0.4 1009546
12:00−5˚ю5994100 0.6 1008508
15:00−5˚ю5994100 1.6 1006538
18:00−5˚ю51094100 1.6 1004751
21:00−5˚ю51093100 2.4 1001623